Radiation Dose at Monitoring Post of Fukushima Daini Nuclear Power Station
Date,Time,MP-1(microSv/h),MP-2(microSv/h),MP-3(microSv/h),MP-4(microSv/h),MP-5(microSv/h),MP-6(microSv/h),MP-7(microSv/h),Wind Direction,Wind Velocity(m/s),Rain
2021/11/04,00:00,0.160,0.147,0.229,0.224,0.228,0.125,0.079,west-northwest,4.6,No
2021/11/04,00:10,0.160,0.145,0.230,0.227,0.228,0.124,0.079,west-northwest,4.3,No
2021/11/04,00:20,0.160,0.146,0.229,0.225,0.228,0.125,0.080,west-northwest,5.2,No
2021/11/04,00:30,0.160,0.145,0.229,0.224,0.228,0.124,0.080,west-northwest,3.5,No
2021/11/04,00:40,0.160,0.146,0.229,0.224,0.228,0.125,0.079,west-northwest,3.6,No
2021/11/04,00:50,0.161,0.146,0.229,0.225,0.228,0.124,0.080,west-northwest,3.4,No
2021/11/04,01:00,0.160,0.146,0.229,0.223,0.229,0.125,0.080,west-northwest,4.0,No
2021/11/04,01:10,0.160,0.146,0.228,0.223,0.228,0.124,0.079,west,2.8,No
2021/11/04,01:20,0.162,0.145,0.229,0.225,0.228,0.124,0.080,west-northwest,2.8,No
2021/11/04,01:30,0.162,0.147,0.229,0.224,0.229,0.124,0.079,west,3.8,No
2021/11/04,01:40,0.159,0.146,0.230,0.223,0.228,0.124,0.079,west-northwest,4.1,No
2021/11/04,01:50,0.161,0.146,0.230,0.225,0.228,0.125,0.080,west-northwest,5.7,No
2021/11/04,02:00,0.160,0.147,0.229,0.224,0.230,0.125,0.079,west-northwest,5.2,No
2021/11/04,02:10,0.160,0.145,0.230,0.223,0.227,0.124,0.079,west-northwest,5.8,No
2021/11/04,02:20,0.160,0.145,0.228,0.225,0.227,0.124,0.080,west-northwest,6.0,No
2021/11/04,02:30,0.161,0.147,0.229,0.223,0.228,0.125,0.079,west-northwest,6.5,No
2021/11/04,02:40,0.160,0.145,0.229,0.224,0.227,0.124,0.079,west,6.8,No
2021/11/04,02:50,0.160,0.145,0.230,0.225,0.228,0.124,0.079,west,6.5,No
2021/11/04,03:00,0.160,0.146,0.229,0.225,0.228,0.125,0.079,west,5.5,No
2021/11/04,03:10,0.159,0.147,0.229,0.224,0.228,0.125,0.079,west-northwest,4.4,No
2021/11/04,03:20,0.161,0.146,0.230,0.225,0.229,0.124,0.080,west-northwest,4.7,No
2021/11/04,03:30,0.161,0.146,0.229,0.224,0.228,0.125,0.079,west-northwest,4.0,No
2021/11/04,03:40,0.161,0.145,0.230,0.224,0.228,0.125,0.080,west-northwest,5.5,No
2021/11/04,03:50,0.161,0.147,0.230,0.224,0.229,0.125,0.080,west-northwest,4.5,No
2021/11/04,04:00,0.160,0.146,0.230,0.224,0.228,0.125,0.079,west,5.8,No
2021/11/04,04:10,0.159,0.145,0.229,0.223,0.229,0.124,0.079,west-northwest,5.4,No
2021/11/04,04:20,0.161,0.145,0.231,0.224,0.228,0.124,0.079,west-northwest,5.1,No
2021/11/04,04:30,0.160,0.146,0.230,0.225,0.228,0.124,0.080,west-northwest,4.9,No
2021/11/04,04:40,0.161,0.146,0.228,0.224,0.229,0.125,0.079,west-northwest,4.4,No
2021/11/04,04:50,0.161,0.147,0.228,0.224,0.228,0.125,0.079,west-northwest,4.4,No
2021/11/04,05:00,0.161,0.146,0.232,0.225,0.229,0.124,0.079,west-northwest,4.7,No
2021/11/04,05:10,0.160,0.146,0.229,0.225,0.228,0.125,0.080,west-northwest,4.1,No
2021/11/04,05:20,0.161,0.147,0.229,0.223,0.228,0.125,0.079,west-northwest,4.4,No
2021/11/04,05:30,0.160,0.146,0.230,0.225,0.228,0.125,0.079,northwest,2.6,No
2021/11/04,05:40,0.160,0.146,0.230,0.223,0.228,0.124,0.080,north-northwest,3.3,No
2021/11/04,05:50,0.161,0.146,0.228,0.224,0.228,0.124,0.080,northwest,3.4,No
2021/11/04,06:00,0.160,0.146,0.228,0.224,0.230,0.125,0.079,northwest,4.4,No
2021/11/04,06:10,0.160,0.146,0.230,0.224,0.227,0.125,0.080,west-northwest,4.4,No
2021/11/04,06:20,0.161,0.145,0.227,0.223,0.228,0.124,0.080,west-northwest,3.6,No
2021/11/04,06:30,0.162,0.146,0.229,0.225,0.229,0.125,0.080,west,3.8,No
2021/11/04,06:40,0.159,0.145,0.230,0.223,0.228,0.125,0.080,west-northwest,2.7,No
2021/11/04,06:50,0.161,0.145,0.229,0.223,0.228,0.125,0.080,west-northwest,3.1,No
2021/11/04,07:00,0.161,0.145,0.229,0.225,0.229,0.124,0.080,west-northwest,2.5,No
2021/11/04,07:10,0.160,0.145,0.229,0.225,0.228,0.124,0.079,northwest,3.3,No
2021/11/04,07:20,0.161,0.145,0.230,0.224,0.229,0.124,0.079,northwest,3.3,No
2021/11/04,07:30,0.160,0.146,0.228,0.223,0.228,0.125,0.079,northwest,5.4,No
2021/11/04,07:40,0.161,0.146,0.229,0.224,0.227,0.124,0.079,northwest,5.7,No
2021/11/04,07:50,0.161,0.147,0.230,0.224,0.229,0.125,0.079,west-northwest,5.8,No
2021/11/04,08:00,0.160,0.145,0.229,0.224,0.227,0.123,0.079,west-northwest,5.6,No
2021/11/04,08:10,0.160,0.146,0.229,0.222,0.229,0.124,0.079,northwest,5.4,No
2021/11/04,08:20,0.161,0.146,0.229,0.223,0.228,0.124,0.079,northwest,5.5,No
2021/11/04,08:30,0.160,0.145,0.228,0.223,0.229,0.124,0.078,northwest,6.6,No
2021/11/04,08:40,0.161,0.146,0.229,0.224,0.229,0.124,0.080,northwest,5.1,No
2021/11/04,08:50,0.161,0.145,0.229,0.223,0.228,0.124,0.079,northwest,4.8,No
2021/11/04,09:00,0.161,0.145,0.230,0.223,0.229,0.124,0.079,northwest,4.6,No
2021/11/04,09:10,0.160,0.144,0.229,0.224,0.228,0.125,0.079,north-northwest,4.5,No
2021/11/04,09:20,0.161,0.146,0.228,0.224,0.229,0.123,0.079,north-northwest,4.3,No
2021/11/04,09:30,0.159,0.145,0.230,0.225,0.227,0.125,0.079,northwest,4.7,No
2021/11/04,09:40,0.160,0.146,0.227,0.222,0.227,0.125,0.080,north-northwest,3.8,No
2021/11/04,09:50,0.159,0.145,0.230,0.224,0.229,0.124,0.080,northwest,4.1,No
2021/11/04,10:00,0.159,0.146,0.228,0.223,0.228,0.125,0.078,north,3.8,No
2021/11/04,10:10,0.160,0.146,0.229,0.222,0.225,0.124,0.079,north-northwest,4.2,No
2021/11/04,10:20,0.160,0.146,0.229,0.225,0.227,0.123,0.079,north,2.6,No
2021/11/04,10:30,0.159,0.146,0.226,0.224,0.228,0.125,0.080,north-northeast,3.8,No
2021/11/04,10:40,0.161,0.145,0.229,0.222,0.226,0.123,0.079,northeast,3.4,No
2021/11/04,10:50,0.159,0.146,0.228,0.223,0.225,0.125,0.080,northeast,3.2,No
2021/11/04,11:00,0.159,0.146,0.226,0.225,0.229,0.125,0.080,northeast,3.4,No
2021/11/04,11:10,0.161,0.146,0.229,0.224,0.229,0.124,0.079,northeast,2.4,No
2021/11/04,11:20,0.161,0.146,0.229,0.222,0.227,0.124,0.080,northeast,3.5,No
2021/11/04,11:30,0.159,0.146,0.229,0.225,0.226,0.125,0.079,east-northeast,2.9,No
2021/11/04,11:40,0.158,0.144,0.230,0.224,0.228,0.124,0.079,northeast,2.8,No
2021/11/04,11:50,0.161,0.146,0.228,0.222,0.229,0.125,0.080,east-northeast,3.0,No
2021/11/04,12:00,0.160,0.146,0.227,0.223,0.227,0.124,0.080,northeast,2.8,No
2021/11/04,12:10,0.158,0.145,0.230,0.225,0.226,0.124,0.079,northeast,3.1,No
2021/11/04,12:20,0.161,0.145,0.229,0.223,0.230,0.126,0.080,northeast,3.4,No
2021/11/04,12:30,0.160,0.146,0.228,0.222,0.231,0.125,0.080,northeast,3.1,No
2021/11/04,12:40,0.158,0.145,0.231,0.223,0.228,0.124,0.079,northeast,2.9,No
2021/11/04,12:50,0.161,0.147,0.229,0.224,0.226,0.126,0.080,northeast,2.0,No
2021/11/04,13:00,0.161,0.145,0.230,0.223,0.229,0.125,0.079,east-northeast,2.4,No
2021/11/04,13:10,0.160,0.146,0.230,0.225,0.228,0.125,0.079,east-northeast,2.2,No
2021/11/04,13:20,0.159,0.146,0.226,0.225,0.226,0.125,0.080,east-northeast,1.5,No
2021/11/04,13:30,0.162,0.145,0.228,0.222,0.227,0.125,0.080,east-northeast,0.8,No
2021/11/04,13:40,0.160,0.145,0.230,0.223,0.231,0.125,0.079,east,2.2,No
2021/11/04,13:50,0.159,0.147,0.229,0.225,0.227,0.125,0.080,east,3.1,No
2021/11/04,14:00,0.160,0.145,0.231,0.223,0.226,0.125,0.079,east-northeast,2.4,No
2021/11/04,14:10,0.161,0.145,0.229,0.223,0.230,0.125,0.080,east-northeast,2.0,No
2021/11/04,14:20,0.160,0.147,0.231,0.224,0.228,0.124,0.080,east,1.6,No
2021/11/04,14:30,0.162,0.146,0.229,0.223,0.229,0.124,0.080,east,1.2,No
2021/11/04,14:40,0.159,0.145,0.231,0.226,0.230,0.125,0.079,east-northeast,1.7,No
2021/11/04,14:50,0.159,0.147,0.230,0.225,0.229,0.125,0.079,east-northeast,1.9,No
2021/11/04,15:00,0.161,0.146,0.231,0.226,0.230,0.125,0.080,east-northeast,1.7,No
2021/11/04,15:10,0.160,0.147,0.230,0.224,0.229,0.125,0.079,east,1.1,No
2021/11/04,15:20,0.161,0.146,0.230,0.225,0.230,0.124,0.080,east-southeast,0.9,No
2021/11/04,15:30,0.160,0.146,0.230,0.225,0.228,0.124,0.079,-,CALM,No
2021/11/04,15:40,0.162,0.145,0.231,0.225,0.230,0.124,0.080,southeast,0.6,No
2021/11/04,15:50,0.160,0.146,0.229,0.224,0.227,0.124,0.079,southeast,0.6,No
2021/11/04,16:00,0.161,0.144,0.229,0.225,0.230,0.125,0.079,-,CALM,No
2021/11/04,16:10,0.159,0.147,0.229,0.224,0.227,0.124,0.079,-,CALM,No
2021/11/04,16:20,0.161,0.146,0.232,0.224,0.229,0.125,0.079,northwest,0.6,No
2021/11/04,16:30,0.161,0.146,0.229,0.224,0.229,0.125,0.079,-,CALM,No
2021/11/04,16:40,0.162,0.146,0.230,0.226,0.228,0.125,0.080,-,CALM,No
2021/11/04,16:50,0.161,0.146,0.230,0.225,0.229,0.124,0.079,-,CALM,No
2021/11/04,17:00,0.161,0.146,0.229,0.226,0.229,0.125,0.079,-,CALM,No
2021/11/04,17:10,0.160,0.146,0.230,0.226,0.228,0.125,0.080,west,0.9,No
2021/11/04,17:20,0.161,0.147,0.230,0.225,0.230,0.124,0.079,northwest,0.7,No
2021/11/04,17:30,0.161,0.146,0.231,0.225,0.229,0.125,0.080,west-northwest,1.2,No
2021/11/04,17:40,0.160,0.145,0.230,0.226,0.231,0.125,0.079,northwest,1.5,No
2021/11/04,17:50,0.161,0.146,0.230,0.225,0.230,0.125,0.079,northwest,2.7,No
2021/11/04,18:00,0.161,0.146,0.231,0.224,0.231,0.126,0.080,northwest,4.0,No
2021/11/04,18:10,0.161,0.147,0.231,0.226,0.228,0.125,0.080,northwest,5.4,No
2021/11/04,18:20,0.161,0.146,0.230,0.224,0.228,0.125,0.080,northwest,4.5,No
2021/11/04,18:30,0.160,0.146,0.231,0.224,0.230,0.125,0.080,northwest,4.6,No
2021/11/04,18:40,0.161,0.146,0.230,0.226,0.227,0.125,0.079,northwest,4.7,No
2021/11/04,18:50,0.160,0.146,0.231,0.224,0.231,0.125,0.080,northwest,5.1,No
2021/11/04,19:00,0.161,0.146,0.230,0.226,0.228,0.124,0.080,northwest,4.5,No
2021/11/04,19:10,0.160,0.147,0.230,0.225,0.230,0.124,0.080,northwest,3.8,No
2021/11/04,19:20,0.162,0.146,0.231,0.224,0.229,0.125,0.079,north-northwest,3.2,No
2021/11/04,19:30,0.160,0.146,0.230,0.226,0.228,0.125,0.079,northwest,2.6,No
2021/11/04,19:40,0.161,0.147,0.229,0.225,0.228,0.125,0.080,northwest,2.6,No
2021/11/04,19:50,0.160,0.145,0.230,0.225,0.229,0.125,0.079,northwest,3.1,No
2021/11/04,20:00,0.160,0.146,0.230,0.225,0.230,0.126,0.079,northwest,3.5,No
2021/11/04,20:10,0.162,0.147,0.230,0.225,0.228,0.125,0.080,northwest,4.0,No
2021/11/04,20:20,0.159,0.145,0.230,0.226,0.229,0.124,0.079,northwest,4.0,No
2021/11/04,20:30,0.160,0.146,0.229,0.225,0.229,0.124,0.079,northwest,4.7,No
2021/11/04,20:40,0.161,0.146,0.230,0.226,0.229,0.124,0.079,northwest,4.9,No
2021/11/04,20:50,0.161,0.145,0.230,0.227,0.229,0.125,0.080,northwest,6.0,No
2021/11/04,21:00,0.162,0.146,0.230,0.225,0.228,0.125,0.080,northwest,5.5,No
2021/11/04,21:10,0.160,0.146,0.231,0.224,0.231,0.125,0.080,northwest,4.9,No
2021/11/04,21:20,0.162,0.146,0.230,0.226,0.229,0.125,0.080,northwest,4.8,No
2021/11/04,21:30,0.161,0.147,0.228,0.226,0.229,0.125,0.080,northwest,4.3,No
2021/11/04,21:40,0.161,0.147,0.231,0.225,0.229,0.126,0.080,northwest,4.6,No
2021/11/04,21:50,0.161,0.147,0.231,0.225,0.229,0.124,0.079,northwest,4.2,No
2021/11/04,22:00,0.161,0.147,0.230,0.225,0.229,0.125,0.079,west-northwest,3.3,No
2021/11/04,22:10,0.161,0.146,0.231,0.225,0.228,0.125,0.081,northwest,3.8,No
2021/11/04,22:20,0.162,0.146,0.231,0.225,0.228,0.125,0.079,northwest,2.9,No
2021/11/04,22:30,0.161,0.147,0.230,0.226,0.230,0.124,0.080,north-northwest,3.3,No
2021/11/04,22:40,0.160,0.146,0.229,0.225,0.229,0.126,0.080,north-northwest,2.6,No
2021/11/04,22:50,0.161,0.146,0.231,0.226,0.230,0.126,0.080,north-northwest,2.9,No
2021/11/04,23:00,0.160,0.147,0.229,0.225,0.230,0.125,0.080,north-northwest,2.9,No
2021/11/04,23:10,0.160,0.145,0.231,0.225,0.229,0.125,0.080,north-northwest,3.0,No
2021/11/04,23:20,0.162,0.146,0.230,0.227,0.229,0.125,0.081,north-northwest,3.9,No
2021/11/04,23:30,0.160,0.147,0.230,0.225,0.230,0.126,0.080,northwest,4.2,No
2021/11/04,23:40,0.161,0.146,0.230,0.225,0.228,0.124,0.080,northwest,4.3,No
2021/11/04,23:50,0.161,0.146,0.231,0.226,0.228,0.125,0.080,northwest,4.8,No
